Regional Weather Roundup
Issued by NWS

Home | Current Version | Previous Version | Text Only | Print | Product List | Glossary On
Versions: 1 2 3 4 5 6 7 8 9 10 11 12 13 14 15 16 17 18 19 20 21 22 23 24 25 26 27 28 29 30 31 32 33 34 35 36 37 38 39 40 41 42 43 44 45 46 47 48 49 50
000
ASUS43 KLMK 300610
RWRKY
KENTUCKY REGIONAL WEATHER ROUNDUP
NATIONAL WEATHER SERVICE LOUISVILLE KY
200 AM EDT SUN APR 30 2017

NOTE "FAIR" INDICATES FEW OR NO CLOUDS BELOW 12,000 FEET
WITH NO SIGNIFICANT WEATHER AND/OR OBSTRUCTIONS TO VISIBILITY.

KYZ001>023-026-027-061>063-070>075-300700-
WESTERN AND SOUTH CENTRAL KENTUCKY

CITY           SKY/WX    TMP DP  RH WIND       PRES   REMARKS
PADUCAH        MOCLDY    65  63  93 E8        29.84F
HENDERSON        N/A    N/A N/A N/A MISG        N/A
OWENSBORO      PTCLDY    68  61  78 NE3       29.89F
HOPKINSVILLE   PTCLDY    75  64  67 S8        29.88F
BOWLING GREEN  CLEAR     72  66  81 SE7       29.93F
GLASGOW        CLEAR     71  63  75 S8        29.96F
$$

KYZ024-025-028>034-038-045-046-053-300700-
NORTH CENTRAL KENTUCKY

CITY           SKY/WX    TMP DP  RH WIND       PRES   REMARKS
LOUISVILLE/SDF CLEAR     77  64  64 S15       29.90F
LOUISVILLE/LOU PTCLDY    76  66  71 S6        29.91F
FORT KNOX      CLEAR     72  64  74 SE12      29.90F
$$

KYZ035>037-039>044-047>052-055>060-089>105-300700-
NORTHEAST KENTUCKY

CITY           SKY/WX    TMP DP  RH WIND       PRES   REMARKS
LEXINGTON      CLEAR     75  62  64 S14       29.97F
COVINGTON      CLOUDY    73  65  75 W9        29.95R
FRANKFORT      MOCLDY    74  63  68 S6        29.95S
$$

KYZ054-064>069-076>088-106>120-300700-
SOUTHEAST KENTUCKY

CITY           SKY/WX    TMP DP  RH WIND       PRES   REMARKS
JACKSON        PTCLDY    71  63  75 CALM      30.04F
LONDON         MOCLDY    74  61  63 S6        30.03F
SOMERSET       MOCLDY    72  61  68 CALM      30.03S
MIDDLESBORO    CLEAR     72  62  69 CALM      30.06F
MONTICELLO     PTCLDY    75  65  70 VRB7      30.03S
$$





USA.gov is the U.S. government's official web portal to all federal, state and local government web resources and services.